Stations météo

réclame
Mon MeteoGroup
Nordkoster, Suède (2500): Température de l'air & dewpoint: 18.08.2019 02:00:00 - 24.08.2019 02:00:00 (CEST)Nordkoster, Suède (2500): Vitesse du vent & gusts: 18.08.2019 02:00:00 - 24.08.2019 02:00:00 (CEST)Nordkoster, Suède (2500): Direction du vent: 18.08.2019 02:00:00 - 24.08.2019 02:00:00 (CEST)Nordkoster, Suède (2500): reduced air pressure: 18.08.2019 02:00:00 - 24.08.2019 02:00:00 (CEST)Nordkoster, Suède (2500): visibility: 18.08.2019 02:00:00 - 24.08.2019 02:00:00 (CEST)Nordkoster, Suède (2500): Quantités de précipitations: 18.08.2019 02:00:00 - 24.08.2019 02:00:00 (CEST)
Date & Time tt [°C] td [°C] ff [km/h] ff [knt] fx [km/h] fx [knt] dd ppp [hPa] vv [km] rr [mm]
24.08.2019 02:00:00 16,4 15,0 17 9 31 17 WSW 1021,7 10 0,0
24.08.2019 01:00:00 16,6 15,0 19 11 30 16 WSW 1021,5 10 0,0
24.08.2019 00:00:00 16,7 15,2 18 10 34 18 WSW 1021,3 9 0,0
23.08.2019 23:00:00 16,7 15,2 22 12 36 19 WSW 1020,9 8 0,0
23.08.2019 22:00:00 16,9 15,2 26 14 38 21 WSW 1020,4 9 0,0
23.08.2019 21:00:00 17,1 15,1 24 13 41 22 WSW 1020,2 9 0,0
23.08.2019 20:00:00 17,2 15,0 27 15 42 23 WSW 1019,6 10 0,0
23.08.2019 19:00:00 17,4 14,9 30 16 44 24 WSW 1018,9 10 0,0
23.08.2019 18:00:00 18,2 14,5 31 17 47 25 WSW 1018,6 11 0,0
23.08.2019 17:00:00 18,8 14,7 29 16 50 27 WSW 1018,5 11 0,0
23.08.2019 16:00:00 18,8 14,9 27 15 52 28 WSW 1018,0 11 0,0
23.08.2019 15:00:00 18,8 15,3 27 14 52 28 WSW 1017,8 11 0,0
23.08.2019 14:00:00 17,9 15,5 34 18 55 30 WSW 1017,3 11 0,0
23.08.2019 13:00:00 17,8 15,8 29 16 47 26 WSW 1017,0 10 0,0
23.08.2019 12:00:00 17,7 16,0 29 15 45 25 WSW 1016,9 13 0,0
23.08.2019 11:00:00 16,9 15,8 27 15 42 23 SW 1016,6 12 0,0
23.08.2019 10:00:00 16,8 15,7 30 16 45 24 SW 1016,5 13 0,0
23.08.2019 09:00:00 16,6 15,6 27 15 42 23 SW 1016,3 8 0,0
23.08.2019 08:00:00 16,5 15,4 29 16 46 25 SW 1016,2 11 0,0
23.08.2019 07:00:00 16,3 15,3 27 14 46 25 SW 1016,2 13 0,0
23.08.2019 06:00:00 16,0 15,2 29 15 48 26 SW 1016,2 7 0,1
23.08.2019 05:00:00 16,0 15,0 35 19 47 25 SSW 1016,3 7 0,2
23.08.2019 04:00:00 16,1 14,5 34 18 48 26 S 1016,9 12 0,0
23.08.2019 03:00:00 15,7 13,5 29 16 41 22 SSW 1017,8 17 0,0
23.08.2019 02:00:00 15,1 13,3 30 16 48 26 SW 1018,1 23 0,0
23.08.2019 01:00:00 15,7 13,4 33 18 49 26 SW 1018,4 14 0,0
23.08.2019 00:00:00 15,8 12,9 30 16 45 25 SW 1018,5 16 0,0
22.08.2019 23:00:00 15,6 12,5 29 16 50 27 SW 1018,6 14 0,0
22.08.2019 22:00:00 15,6 13,1 31 17 51 28 SW 1018,6 14 0,0
22.08.2019 21:00:00 15,3 12,8 31 17 55 30 SW 1018,3 17 0,0
22.08.2019 20:00:00 15,3 12,8 36 19 53 29 SW 1018,0 18 0,0
22.08.2019 19:00:00 15,1 12,2 37 20 63 34 SW 1018,2 16 0,0
22.08.2019 18:00:00 15,3 12,6 42 23 74 40 SW 1018,5 13 0,3
22.08.2019 17:00:00 14,9 13,4 43 23 69 38 SSW 1018,7 6 5,8
22.08.2019 16:00:00 16,4 12,7 47 25 67 36 S 1018,4 11 0,2
22.08.2019 15:00:00 15,7 13,5 40 22 54 29 S 1018,9 7 0,5
22.08.2019 14:00:00 16,0 14,0 39 21 57 31 S 1020,1 9 0,1
22.08.2019 13:00:00 16,5 14,0 36 19 - - S 1020,6 12 0,0
22.08.2019 12:00:00 16,8 13,7 35 19 51 27 S 1021,0 18 0,0
22.08.2019 11:00:00 16,3 13,8 36 19 48 26 SSW 1021,4 18 0,0
22.08.2019 10:00:00 16,1 13,8 34 18 50 27 SSW 1021,4 16 0,0
22.08.2019 09:00:00 16,0 13,8 32 17 46 25 SSW 1021,4 15 0,0
22.08.2019 08:00:00 16,0 13,7 30 16 44 24 SSW 1021,6 16 0,0
22.08.2019 07:00:00 15,8 13,5 34 18 45 25 SSW 1021,6 19 0,0
22.08.2019 06:00:00 15,4 12,3 17 9 29 16 SSW 1022,0 22 0,0
22.08.2019 05:00:00 15,1 12,4 20 11 35 19 SW 1022,4 21 0,0
22.08.2019 04:00:00 15,3 11,7 23 12 38 21 WSW 1022,6 26 0,0
22.08.2019 03:00:00 15,4 10,6 25 13 40 22 WSW 1022,7 26 0,0
22.08.2019 02:00:00 15,5 9,8 26 14 45 24 WSW 1022,4 26 0,0
22.08.2019 01:00:00 15,6 10,1 28 15 49 26 WSW 1022,3 26 0,0
22.08.2019 00:00:00 16,0 9,4 31 17 50 27 WSW 1021,9 21 0,0
21.08.2019 23:00:00 16,0 11,4 31 17 51 28 WSW 1021,7 17 0,0
21.08.2019 22:00:00 16,0 11,6 29 16 44 24 WSW 1021,4 16 0,0
21.08.2019 21:00:00 15,9 11,5 30 16 43 23 WSW 1021,2 16 0,0
21.08.2019 20:00:00 16,2 11,1 26 14 44 24 WSW 1021,3 18 0,0
21.08.2019 19:00:00 16,8 10,6 28 15 41 22 WSW 1021,3 23 0,0
21.08.2019 18:00:00 17,3 11,1 27 15 41 22 WSW 1021,4 21 0,0
21.08.2019 17:00:00 17,6 10,7 26 14 40 22 WSW 1021,4 29 0,0
21.08.2019 16:00:00 18,2 9,8 25 14 39 21 WSW 1021,2 32 0,0
21.08.2019 15:00:00 18,4 9,7 16 9 28 15 SW 1021,4 40 0,0
21.08.2019 14:00:00 17,2 9,1 17 9 25 13 SW 1021,2 39 0,0
21.08.2019 13:00:00 17,4 9,6 15 8 26 14 SW 1020,9 29 0,0
21.08.2019 12:00:00 16,5 9,4 15 8 - - W 1020,5 44 0,0
21.08.2019 11:00:00 16,0 9,7 15 8 22 12 W 1020,2 39 0,0
21.08.2019 10:00:00 16,4 9,1 11 6 22 12 WNW 1019,8 43 0,0
21.08.2019 09:00:00 16,0 10,1 14 7 23 13 W 1019,5 38 0,0
21.08.2019 08:00:00 15,3 9,9 16 9 - - W 1018,9 44 0,0
21.08.2019 07:00:00 15,0 9,8 16 9 24 13 W 1018,5 42 0,0
21.08.2019 06:00:00 14,6 10,4 17 9 25 13 WSW 1018,1 35 0,0
21.08.2019 05:00:00 14,6 10,2 19 10 35 19 WSW 1017,8 35 0,0
21.08.2019 04:00:00 14,6 10,6 22 12 36 19 SW 1017,6 29 0,0
21.08.2019 03:00:00 14,9 9,9 24 13 38 21 WSW 1017,4 27 0,0
21.08.2019 02:00:00 15,3 10,3 26 14 39 21 WSW 1017,3 27 0,0
21.08.2019 01:00:00 15,6 11,0 25 14 39 21 WSW 1017,1 26 0,0
21.08.2019 00:00:00 15,8 12,0 27 15 46 25 SW 1016,8 18 0,0
20.08.2019 23:00:00 15,8 12,4 29 16 45 24 SW 1016,7 18 0,0
20.08.2019 22:00:00 15,8 12,4 28 15 44 24 SW 1016,5 19 0,0
20.08.2019 21:00:00 16,0 12,0 29 16 46 25 SW 1016,3 18 0,0
20.08.2019 20:00:00 16,2 12,0 30 16 43 23 SW 1016,1 20 0,0
20.08.2019 19:00:00 16,5 12,3 30 16 44 24 SW 1015,8 19 0,0
20.08.2019 18:00:00 17,1 12,2 29 16 45 25 SW 1015,5 23 0,0
20.08.2019 17:00:00 17,6 12,7 28 15 43 23 SW 1015,3 17 0,0
20.08.2019 16:00:00 17,6 11,6 31 17 46 25 SW 1015,1 23 0,0
20.08.2019 15:00:00 15,5 13,0 26 14 49 26 SW 1015,3 9 0,2
20.08.2019 14:00:00 17,9 12,6 31 17 47 26 SW 1014,7 17 0,0
20.08.2019 13:00:00 17,8 12,0 27 15 48 26 SW 1014,6 19 0,0
20.08.2019 12:00:00 17,3 11,3 30 16 45 24 SSW 1014,1 19 0,0
20.08.2019 11:00:00 17,7 11,5 31 17 45 25 SW 1013,6 28 0,0
20.08.2019 10:00:00 17,5 11,7 26 14 41 22 SW 1013,3 17 0,0
20.08.2019 09:00:00 16,7 11,6 26 14 41 22 WSW 1012,6 18 0,0
20.08.2019 08:00:00 16,0 11,2 30 16 44 24 WSW 1011,9 17 0,0
20.08.2019 07:00:00 15,7 11,5 29 16 45 24 WSW 1011,4 16 0,0
20.08.2019 06:00:00 15,7 12,1 26 14 44 24 SW 1011,2 16 0,0
20.08.2019 05:00:00 15,4 12,5 28 15 42 23 SW 1010,6 16 0,0
20.08.2019 04:00:00 15,6 12,5 27 15 43 23 SW 1010,1 17 0,0
20.08.2019 03:00:00 15,6 12,9 27 14 42 23 SW 1009,8 18 0,0
20.08.2019 02:00:00 15,8 12,9 28 15 44 24 SW 1009,7 16 0,0
20.08.2019 01:00:00 16,1 13,4 25 13 43 23 SW 1009,5 15 0,0
20.08.2019 00:00:00 15,9 12,8 27 15 45 24 SW 1009,2 16 0,0
19.08.2019 23:00:00 16,1 13,6 29 16 51 28 SW 1008,9 12 0,0
19.08.2019 22:00:00 16,2 13,3 32 18 47 25 SW 1008,7 13 0,0
19.08.2019 21:00:00 16,2 13,3 32 17 53 29 SW 1008,2 14 0,0
19.08.2019 20:00:00 16,5 13,0 35 19 52 28 SW 1007,5 14 0,0
19.08.2019 19:00:00 17,0 12,9 37 20 54 29 SW 1007,3 14 0,0
19.08.2019 18:00:00 17,2 12,7 35 19 52 28 SSW 1006,8 13 0,0
19.08.2019 17:00:00 17,5 11,5 37 20 54 29 SSW 1006,4 15 0,0
19.08.2019 16:00:00 17,3 12,8 36 19 - - SSW 1006,1 12 0,0
19.08.2019 15:00:00 18,2 12,9 33 18 51 28 SW 1005,5 15 0,0
19.08.2019 14:00:00 18,1 13,2 34 18 - - SW 1005,1 14 0,0
19.08.2019 13:00:00 17,7 12,6 36 19 52 28 SW 1004,6 18 0,0
19.08.2019 12:00:00 15,6 12,2 39 21 56 31 SSW 1004,1 11 0,2
19.08.2019 11:00:00 14,6 12,3 30 16 54 29 SW 1003,8 8 0,1
19.08.2019 10:00:00 17,1 14,2 31 17 51 28 SSW 1003,5 13 0,0
19.08.2019 09:00:00 16,7 14,0 36 19 - - SSW 1003,3 13 0,0
19.08.2019 08:00:00 16,2 13,1 33 18 48 26 SW 1002,8 13 0,0
19.08.2019 07:00:00 15,7 12,4 27 14 39 21 SW 1002,6 15 0,0
19.08.2019 06:00:00 15,2 12,0 19 10 35 19 SW 1002,2 16 0,0
19.08.2019 05:00:00 15,1 11,9 23 13 39 21 WSW 1001,6 18 0,0
19.08.2019 04:00:00 15,1 12,8 23 12 37 20 SW 1001,3 21 0,0
19.08.2019 03:00:00 14,8 12,5 23 12 35 19 SW 1001,4 30 0,0
19.08.2019 02:00:00 14,9 12,0 15 8 25 13 WSW 1001,3 24 0,0
19.08.2019 01:00:00 14,7 12,0 17 9 32 17 WSW 1000,9 24 0,0
19.08.2019 00:00:00 14,3 12,2 22 12 - - WSW 1000,9 21 1,3
18.08.2019 23:00:00 14,3 12,3 20 11 34 19 SW 1000,9 19 0,7
18.08.2019 22:00:00 14,9 12,8 18 10 29 16 SW 1000,9 20 0,4
18.08.2019 21:00:00 15,2 11,8 20 11 27 14 SW 1000,8 19 0,0
18.08.2019 20:00:00 16,3 13,2 19 10 28 15 S 1000,9 21 0,0
18.08.2019 19:00:00 16,5 14,0 19 11 28 15 S 1001,2 17 0,0
18.08.2019 18:00:00 16,9 13,8 19 11 32 17 S 1001,8 22 0,0
18.08.2019 17:00:00 17,0 14,3 19 10 31 17 SSE 1002,0 16 0,0
18.08.2019 16:00:00 16,2 14,6 17 9 27 14 SSE 1002,3 12 0,4
18.08.2019 15:00:00 16,6 13,7 18 10 24 13 S 1002,9 14 0,0
18.08.2019 14:00:00 16,9 11,8 14 7 19 11 S 1003,0 21 0,0
18.08.2019 13:00:00 17,1 12,6 11 6 22 12 S 1003,2 19 0,0
18.08.2019 12:00:00 17,4 12,5 11 6 18 10 S 1003,3 19 0,0
18.08.2019 11:00:00 16,8 11,7 15 8 22 12 SSW 1003,2 20 0,0
18.08.2019 10:00:00 16,8 11,7 15 8 22 12 SSW 1003,2 18 0,0
18.08.2019 09:00:00 16,7 11,8 13 7 21 11 SSW 1003,0 15 0,0
18.08.2019 08:00:00 16,1 11,3 12 6 24 13 SW 1002,9 17 0,0
18.08.2019 07:00:00 15,3 11,1 12 7 26 14 WSW 1002,9 15 0,0
18.08.2019 06:00:00 15,1 10,7 19 10 34 18 WSW 1002,7 15 0,0
18.08.2019 05:00:00 15,3 10,9 19 10 34 18 WSW 1002,5 14 0,0
18.08.2019 04:00:00 15,5 11,7 23 12 35 19 SW 1002,5 13 0,0
18.08.2019 03:00:00 15,8 13,5 24 13 39 21 SW 1002,2 11 0,0
18.08.2019 02:00:00 16,1 14,1 28 15 41 22 SW 1001,9 10 0,0

tt = Température de l'air
td = dewpoint
ff = Vitesse du vent
fx = gusts
dd = Direction du vent
ppp = reduced air pressure
vv = visibility
rr = Quantités de précipitations

stations d'obs. à proximité